This is the latest recevied weather packets stored in our database for station/object R2AJV-13. If no packets are shown the sender has not sent any weather packets the latest 10 day(s).
| Time | Temp. | Humidity | Pressure | Rain* | Wind** | Luminosity | Snow |
|---|---|---|---|---|---|---|---|
| 1788717639 | 10° C | 99% | 991.5 hPa | 0 mm | - | - | - |
| 1788716728 | 10° C | 99% | 991.6 hPa | 0 mm | - | - | - |
| 1788715817 | 10° C | 99% | 991.6 hPa | 0 mm | - | - | - |
| 1788714973 | 10.56° C | 98% | 991.6 hPa | 0 mm | - | - | - |
| 1788714030 | 10.56° C | 97% | 991.4 hPa | 0 mm | - | - | - |
| 1788713124 | 11.11° C | 95% | 991.2 hPa | 0 mm | - | - | - |
| 1788712274 | 12.22° C | 91% | 991 hPa | 0 mm | - | - | - |
| 1788711364 | 12.78° C | 89% | 990.8 hPa | 0 mm | - | - | - |
| 1788709542 | 13.89° C | 86% | 990.7 hPa | 0 mm | - | - | - |
| 1788708637 | 13.89° C | 85% | 990.5 hPa | 0 mm | - | - | - |
| 1788707726 | 14.44° C | 88% | 990.3 hPa | 0 mm | - | - | - |
| 1788706816 | 15° C | 83% | 990.3 hPa | 0 mm | - | - | - |
| 1788705965 | 16.67° C | 76% | 990.1 hPa | 0 mm | - | - | - |
| 1788705060 | 15.56° C | 83% | 990 hPa | 0 mm | - | - | - |
| 1788704150 | 16.11° C | 79% | 990.1 hPa | 0 mm | - | - | - |
| 1788701418 | 18.89° C | 63% | 989.5 hPa | 0 mm | - | - | - |
| 1788700573 | 18.33° C | 63% | 989.3 hPa | 0 mm | - | - | - |
| 1788699631 | 18.33° C | 68% | 989.4 hPa | 0 mm | - | - | - |
| 1788698725 | 18.33° C | 71% | 989.3 hPa | 0 mm | - | - | - |
| 1788697875 | 16.67° C | 78% | 989.3 hPa | 0 mm | - | - | - |
| 1788696964 | 17.22° C | 71% | 989.1 hPa | 0 mm | - | - | - |
| 1788695142 | 18.33° C | 63% | 989 hPa | 0 mm | - | - | - |
| 1788694238 | 17.22° C | 70% | 988.9 hPa | 0 mm | - | - | - |
| 1788693326 | 18.33° C | 67% | 988.9 hPa | 0 mm | - | - | - |
| 1788692416 | 19.44° C | 64% | 988.7 hPa | 0 mm | - | - | - |
* Rain latest hour (hover to see other rain measurements)
** Current wind speed in m/s (hover to see current wind gust speed)